EHI
1 1 1 1 0 0 0 0 0 0 0 0 0 0 0 0 0 0 0 0 0 0 0 1 4 3 1 0 0 0 0 0 0 0 1 2 4 6 6 4 2 1 2 3 4 4 3 2 2
1 1 1 1 0 0 0 0 0 0 0 0 0 0 0 0 0 0 0 0 0 0 0 1 4 5 2 0 0 0 0 0 0 0 0 1 3 5 4 3 1 1 3 3 4 3 2 1 1
1 1 1 1 0 0 0 0 0 0 0 0 0 0 0 0 0 0 0 0 0 0 0 2 5 7 4 1 0 0 0 0 0 0 0 0 1 2 2 1 1 2 3 4 4 2 1 0 0
3 2 1 0 0 0 0 0 0 0 0 0 0 0 0 0 0 0 0 0 0 0 0 2 6 7 4 1 0 0 0 0 0 0 0 0 0 0 0 0 1 2 3 4 3 1 0 0 0
3 2 1 0 0 0 0 0 0 0 0 0 0 0 0 0 0 0 0 0 0 0 0 1 3 4 3 1 0 0 0 0 0 0 0 0 0 0 0 0 0 1 1 2 2 1 0 0 0
2 1 0 0 0 0 0 0 0 0 0 0 0 0 0 0 0 0 0 0 0 0 0 1 1 1 1 1 0 0 0 0 0 0 1 1 0 0 0 0 0 0 0 1 1 0 0 0 0
1 0 0 0 0 0 0 0 0 0 0 0 0 0 0 0 0 0 0 0 0 0 0 0 0 1 1 0 0 0 0 0 0 1 2 2 1 0 0 1 1 1 0 1 1 0 0 0 1
1 0 0 0 0 0 0 0 0 0 0 0 0 0 0 0 0 0 0 0 0 0 0 0 0 0 0 0 0 1 1 1 1 2 2 2 1 0 0 2 4 3 2 2 2 1 1 1 1
0 0 0 0 0 0 0 0 0 0 0 0 0 0 0 0 1 2 2 0 0 0 0 0 0 0 0 0 0 1 1 2 1 1 1 1 1 0 0 2 4 5 4 3 2 2 2 1 1
0 0 0 0 0 0 0 0 0 0 0 0 0 0 0 0 1 3 3 1 0 0 0 0 0 0 0 0 0 0 1 1 1 0 0 0 0 0 0 1 2 3 3 2 1 1 1 1 1
0 0 0 0 0 0 0 0 0 0 0 0 0 0 1 1 1 3 3 2 1 0 0 0 0 0 0 0 0 0 0 0 0 0 0 0 0 0 0 0 1 1 1 1 0 0 0 0 1
0 0 0 0 0 0 0 0 0 0 0 0 0 1 2 2 1 1 2 2 1 1 1 1 0 0 0 0 0 0 0 0 0 0 0 0 0 0 0 0 0 0 0 0 0 0 0 0 1
0 0 0 0 0 0 0 0 0 0 0 0 1 2 3 2 1 0 1 1 1 2 3 2 1 0 0 1 1 1 0 0 0 0 0 0 0 0 0 0 0 0 0 0 0 0 0 0 0
0 0 0 0 0 0 0 0 0 0 0 0 2 3 3 2 1 0 0 0 1 3 4 3 2 1 2 3 2 1 0 0 0 0 0 0 0 0 0 0 0 0 0 0 0 0 0 0 0
0 0 0 0 0 0 0 0 0 0 0 0 1 3 3 3 2 2 2 2 3 5 6 6 5 4 4 4 3 2 0 0 0 0 0 0 0 0 0 0 0 0 0 0 0 0 0 0 0
0 0 0 0 0 0 0 0 0 1 0 0 1 3 4 4 5 5 5 5 5 6 6 7 7 5 4 4 3 2 1 1 0 0 0 0 0 0 0 0 0 0 0 0 1 1 1 2 1
0 0 0 0 0 0 0 0 1 1 1 1 3 5 6 6 7 7 7 6 5 5 5 6 7 6 4 3 2 2 2 1 0 0 0 0 0 0 0 0 0 0 0 0 1 2 2 3 3
0 0 0 0 0 0 0 0 1 2 2 3 4 5 7 9 9 8 7 5 4 4 4 4 5 4 3 1 1 1 1 1 0 0 0 0 0 0 0 0 0 0 0 0 1 1 1 2 2
0 0 0 0 0 0 0 0 1 3 4 4 4 5 7 10 10 9 7 7 7 7 6 4 4 4 2 1 1 0 0 0 0 0 0 0 0 0 0 0 0 0 0 0 0 0 0 1 1
0 0 0 0 0 0 0 0 1 3 5 6 5 5 5 8 10 10 10 11 12 13 11 8 6 6 5 3 2 1 1 0 0 0 0 0 1 1 1 0 0 0 0 0 0 0 0 0 0
0 0 0 0 0 0 0 0 1 2 4 6 6 5 6 8 10 12 15 17 17 16 15 12 10 9 7 5 3 3 2 1 1 1 0 1 2 3 3 2 1 0 0 0 0 0 0 0 0
0 0 0 0 0 0 0 0 0 1 3 5 7 7 8 10 11 14 20 22 20 18 17 16 14 11 10 7 5 3 3 2 2 1 1 2 3 5 6 5 3 2 1 0 0 0 0 0 0
0 0 0 0 0 0 0 0 0 1 2 4 6 8 10 10 11 14 20 23 21 20 20 17 15 14 13 10 7 4 3 3 2 1 0 1 2 4 6 6 6 4 3 1 1 0 0 0 0
0 0 0 0 0 0 0 0 0 0 1 2 5 8 11 12 12 12 17 21 22 22 23 20 17 16 15 13 8 4 2 2 1 0 0 0 1 3 5 6 7 6 4 3 2 1 1 1 1
0 0 0 0 0 0 0 0 0 0 0 1 3 7 10 12 12 14 17 22 25 27 27 26 23 21 18 14 9 4 2 2 1 0 0 1 1 2 4 6 8 8 7 5 3 3 2 2 2
0 0 0 0 0 0 0 0 0 0 0 1 3 6 9 10 12 16 20 24 27 31 33 32 29 26 21 16 10 6 4 2 1 0 1 2 2 3 3 5 7 10 10 7 4 3 3 3 3
0 0 0 0 0 0 0 0 0 0 1 2 4 6 7 8 12 16 20 23 27 32 36 36 33 30 25 19 13 8 6 4 3 2 2 2 2 2 2 3 7 10 11 9 6 4 3 3 3
0 0 0 0 0 0 0 0 0 1 2 3 4 5 5 7 11 15 20 23 27 33 37 38 37 34 28 22 16 12 9 8 6 5 3 1 1 1 1 3 6 8 8 7 6 5 4 3 3
0 0 0 0 0 0 0 0 1 2 3 3 3 3 4 6 10 15 21 25 31 36 40 41 40 36 31 25 20 16 14 11 9 7 4 2 1 1 2 3 6 6 5 4 4 4 3 2 2
0 0 0 0 0 0 0 0 1 3 4 3 3 2 2 6 11 17 23 27 33 38 41 43 42 37 32 28 23 18 15 13 10 8 6 4 3 2 1 2 5 6 4 3 2 2 1 1 1
Wind_Speed
8 6 3 1 3 3 3 3 6 6 6 7 10 10 9 7 5 5 2 6 6 6 5 7 10 11 11 11 12 13 13 13 13 13 13 13 14 14 14 13 13 13 13 12 12 11 10 10 10
6 5 1 2 3 3 3 4 9 9 9 9 10 11 10 8 7 7 4 5 6 6 4 6 10 11 11 12 12 13 13 13 12 12 12 13 13 13 13 13 12 12 12 12 11 11 10 9 9
5 3 1 2 2 3 3 5 10 11 9 7 6 7 6 5 6 4 4 7 6 5 4 6 11 11 12 12 12 12 12 12 12 12 12 13 13 12 12 12 12 12 11 11 11 10 9 8 8
3 2 2 3 3 3 5 6 10 11 9 9 8 7 5 4 4 6 8 8 7 4 4 6 10 11 12 12 12 12 12 12 12 12 12 13 12 12 11 11 11 11 10 10 9 9 8 7 6
2 3 3 2 4 4 6 9 10 9 6 9 10 8 5 4 10 11 9 8 7 4 2 5 10 12 12 12 12 12 12 11 12 12 11 11 11 11 10 10 11 10 10 9 8 8 7 6 5
2 3 3 3 4 5 6 9 12 13 12 10 9 7 4 6 10 9 8 7 6 5 3 5 11 12 12 12 12 12 11 11 11 11 11 11 10 10 9 9 10 10 9 9 8 7 6 5 4
3 3 2 3 5 6 7 8 10 11 10 7 7 6 4 5 6 8 8 7 5 5 4 4 5 8 11 12 12 12 11 11 11 11 11 11 10 9 9 8 9 9 8 8 7 6 5 4 3
3 3 1 3 6 6 6 7 8 11 9 9 6 7 5 6 7 8 7 7 6 4 4 4 4 4 5 6 11 11 11 11 11 11 10 10 9 8 8 7 9 9 8 7 6 5 4 3 3
2 4 2 3 6 6 8 10 7 8 10 6 5 7 8 10 9 9 7 6 5 5 4 5 5 4 4 5 8 8 10 9 9 8 9 7 4 3 4 7 9 8 7 6 5 4 3 2 2
3 4 4 5 7 7 9 11 8 7 10 8 9 9 10 9 9 9 8 7 6 6 5 5 5 5 4 4 4 3 3 4 3 3 4 3 2 2 3 6 7 7 6 4 3 3 2 1 0
3 4 3 4 7 9 9 9 7 9 8 10 12 11 10 9 8 8 8 7 7 7 7 6 6 5 4 3 3 2 2 2 3 3 3 3 2 2 1 1 2 2 3 1 1 1 1 1 1
4 3 4 5 7 9 9 8 8 8 9 11 12 12 10 9 8 8 7 7 6 7 7 7 6 5 5 4 3 3 2 2 2 2 3 3 2 2 2 1 1 1 0 1 1 1 1 1 1
4 2 4 7 8 9 11 10 10 8 11 12 12 10 9 8 7 7 7 7 7 7 7 7 6 6 5 4 3 3 2 2 2 2 2 3 3 2 2 1 1 2 1 2 2 1 1 1 1
2 3 4 6 6 9 12 8 8 10 12 12 11 9 9 9 9 7 7 7 6 6 6 6 6 6 6 4 3 3 2 3 3 2 3 3 3 3 2 2 1 1 2 2 2 1 1 1 0
1 4 3 2 4 6 11 7 8 12 13 12 10 9 9 8 8 8 8 7 7 7 6 6 6 6 5 5 4 3 2 3 3 2 3 3 3 3 3 2 1 1 1 1 1 0 0 0 0
3 4 2 2 4 5 9 6 7 10 12 11 10 10 9 7 8 8 8 7 7 7 6 6 7 6 5 4 4 3 3 3 2 2 2 3 2 3 2 2 1 1 1 1 1 1 1 0 1
4 1 1 1 2 4 6 6 8 9 11 10 9 9 9 7 7 7 9 9 8 7 7 6 6 6 5 4 3 3 3 3 2 2 2 2 2 2 2 1 1 0 1 1 1 1 1 1 0
2 1 1 1 2 5 4 6 9 9 11 11 10 9 9 9 8 9 9 9 8 7 7 6 6 5 5 3 3 2 3 2 2 2 2 2 1 2 1 1 0 1 1 1 1 1 1 1 1
4 2 1 3 2 4 5 7 10 10 10 10 9 10 10 10 9 9 9 9 8 7 7 6 6 5 4 3 2 2 1 1 1 1 2 2 2 2 2 1 1 1 1 1 1 1 2 1 1
3 3 3 2 3 3 4 5 8 9 12 12 12 11 11 9 8 9 9 9 9 9 7 7 7 6 5 3 3 2 2 1 1 1 1 1 1 1 2 2 1 1 1 2 1 2 1 0 1
4 5 5 4 0 2 4 1 3 5 5 7 10 11 11 13 12 11 10 9 9 9 9 8 7 6 5 4 3 2 2 1 1 1 0 1 1 1 1 2 1 1 1 1 1 1 2 1 1
4 6 6 4 3 1 3 2 5 5 5 7 9 10 10 11 10 10 10 10 10 10 8 8 7 6 6 5 5 4 3 2 3 2 1 1 1 1 2 2 2 2 2 2 1 2 2 2 0
5 4 4 4 3 1 1 3 5 4 6 8 9 11 12 11 12 11 11 11 9 9 8 7 7 6 5 5 6 5 3 2 2 1 1 1 0 1 1 2 2 2 2 2 1 1 1 2 2
4 4 4 5 5 1 3 3 5 6 10 10 11 11 12 12 12 11 10 8 7 8 8 8 8 6 6 6 5 6 5 4 3 2 2 1 0 0 1 1 2 2 2 2 2 1 1 1 1
5 7 4 4 4 5 3 2 8 9 10 12 14 13 12 12 12 11 10 10 9 9 9 8 8 7 6 6 5 6 6 6 5 4 3 2 1 1 1 1 2 2 2 2 1 1 1 1 1
5 9 8 4 4 4 3 4 8 5 6 9 11 12 12 12 11 12 12 12 12 11 10 9 9 7 7 6 5 5 5 4 3 4 4 3 3 2 2 2 2 2 2 2 1 1 1 1 1
4 3 8 7 2 1 3 3 5 1 2 7 10 10 11 12 12 12 12 12 11 11 11 10 9 8 8 7 6 5 4 4 4 3 3 2 2 2 2 2 2 2 2 2 2 1 1 1 1
6 6 6 5 4 2 3 3 5 4 4 5 8 11 10 10 9 10 10 10 10 10 10 9 9 9 8 7 6 5 5 4 4 4 3 3 2 2 2 2 2 2 1 2 2 1 1 1 1
2 3 5 4 5 6 3 7 7 9 8 8 8 10 12 11 11 9 9 9 9 8 9 8 8 7 7 7 6 5 5 5 4 4 4 3 3 2 2 2 2 2 2 2 2 1 1 1 1
6 6 7 5 3 4 4 8 5 7 6 7 7 8 10 12 11 10 9 8 8 8 8 9 8 8 8 7 6 6 5 5 5 4 4 3 3 3 3 2 2 3 2 2 2 2 2 2 2
Wind_Direction
159 154 155 120 40 45 59 68 92 85 67 60 69 77 75 61 87 120 148 127 129 134 135 128 130 126 122 120 121 120 120 117 114 111 113 117 120 121 121 121 121 122 120 118 116 114 114 114 114
158 164 132 52 64 64 57 77 85 93 110 103 77 75 72 65 76 106 114 126 125 130 133 132 132 131 127 124 124 123 122 121 119 117 116 116 122 123 124 123 123 122 123 122 119 117 116 115 113
167 177 101 63 83 117 108 91 96 95 95 90 85 64 67 83 97 117 139 135 121 121 128 138 136 134 130 129 130 130 127 125 123 120 119 120 121 121 123 124 124 125 125 124 124 122 119 119 118
146 98 52 65 90 117 125 117 106 99 79 71 89 75 70 87 110 128 134 127 117 117 130 145 139 137 134 133 132 132 131 129 127 124 123 124 123 123 123 126 128 129 130 129 129 127 125 123 121
97 84 60 77 100 106 107 108 100 91 82 83 88 94 83 79 111 122 128 125 124 128 138 145 140 140 138 136 135 133 132 132 130 129 129 129 128 127 128 129 135 136 135 135 135 133 131 130 127
67 75 71 96 102 97 100 105 97 93 101 100 98 99 97 122 121 128 126 126 131 134 127 137 141 140 141 140 139 137 137 135 135 136 135 135 136 137 137 137 142 142 140 140 140 140 138 139 138
118 104 116 125 102 94 104 104 104 111 113 106 114 100 117 133 135 132 127 127 127 129 121 115 130 135 142 143 141 140 141 140 140 142 143 143 144 144 145 145 146 146 146 147 150 148 147 150 158
159 100 78 109 109 106 113 99 110 116 107 121 114 118 149 163 143 129 121 118 120 117 118 116 111 111 126 138 141 141 143 142 144 145 147 146 146 147 151 152 154 155 157 159 160 160 164 174 188
121 87 119 143 133 133 122 106 99 98 109 103 90 117 144 144 130 122 116 109 115 117 115 124 117 115 120 130 141 140 142 143 143 145 147 142 132 135 148 158 160 164 168 172 176 184 200 222 234
125 128 179 169 147 143 129 122 123 110 102 99 101 110 127 134 130 128 134 135 137 137 134 134 136 137 136 140 129 125 132 131 126 124 128 124 127 135 143 159 168 170 174 179 195 219 245 267 301
142 148 163 135 136 135 126 122 120 120 121 135 138 139 138 133 133 135 141 149 150 149 144 145 150 145 138 127 126 121 118 123 126 131 136 129 122 122 121 133 157 164 175 174 225 274 275 277 289
126 142 146 125 126 127 128 122 112 122 144 144 140 139 137 136 140 143 140 142 144 138 145 149 149 139 139 133 130 132 129 133 139 142 142 134 128 127 131 141 146 155 149 158 226 257 252 268 254
110 132 122 124 121 119 116 120 120 126 133 135 131 130 134 136 137 135 131 131 132 133 142 149 147 141 140 130 139 137 140 145 144 134 143 141 137 142 153 163 165 177 178 183 205 237 237 254 258
164 147 127 125 120 123 118 120 114 138 139 136 135 135 140 139 138 133 130 129 133 135 135 138 136 138 135 130 131 132 141 141 131 135 139 132 134 141 150 157 174 185 190 193 197 199 204 260 223
74 87 72 126 132 127 111 102 132 148 143 142 146 145 144 144 143 147 148 143 143 143 136 136 132 127 126 127 128 121 122 122 123 133 127 124 130 138 141 143 162 196 184 166 151 142 100 247 199
33 57 78 233 148 141 111 143 162 154 146 149 154 151 148 149 152 150 146 141 141 140 136 143 138 127 125 123 121 116 113 118 123 124 113 116 126 130 130 132 176 209 146 138 140 118 99 36 39
25 60 242 273 168 146 125 160 174 163 154 156 157 154 153 153 154 151 150 148 148 148 143 141 133 134 133 126 118 112 111 117 125 120 121 132 129 126 127 149 209 201 86 101 149 130 142 137 85
236 220 290 235 183 124 126 159 165 170 162 163 161 158 158 163 170 161 154 154 150 149 144 141 140 141 135 121 101 86 90 100 112 136 153 150 137 129 126 149 178 96 90 77 86 107 103 128 118
184 149 256 256 171 125 158 164 173 176 173 167 167 167 169 174 173 161 157 155 151 147 144 144 145 150 140 129 128 124 134 132 137 177 173 152 143 139 130 138 117 110 106 119 110 106 81 57 93
183 202 226 269 214 144 169 176 183 185 185 178 174 176 174 169 166 164 161 159 158 158 157 152 154 155 153 155 155 156 150 160 172 175 159 156 147 150 142 139 138 130 107 89 87 107 100 350 89
216 204 207 202 311 59 115 64 192 199 186 179 179 177 175 175 172 171 170 168 165 167 167 163 162 159 160 157 135 116 84 69 69 85 188 210 163 151 135 134 139 133 123 129 114 126 125 139 326
226 218 189 176 115 255 138 188 248 203 190 178 176 175 176 176 170 171 173 173 175 176 169 160 162 162 163 157 149 151 154 168 198 191 191 190 174 176 159 136 131 129 124 126 141 132 135 133 174
211 207 166 168 137 34 29 133 268 184 192 199 186 181 177 173 169 171 175 177 176 171 165 159 158 165 165 162 161 159 165 181 184 167 166 175 187 180 172 145 136 138 142 150 144 125 133 142 154
160 76 41 43 69 8 242 156 256 212 198 194 189 181 176 173 173 174 172 166 165 167 166 163 163 171 171 167 166 166 168 169 162 167 171 190 231 281 287 149 155 159 161 164 168 154 146 148 145
109 92 43 9 13 257 255 184 244 228 199 184 181 181 177 171 172 171 168 170 172 171 171 171 169 173 174 170 174 178 177 175 178 183 184 183 189 216 248 193 166 176 180 178 163 139 155 163 150
188 141 152 181 210 271 305 228 257 242 198 179 172 172 171 172 175 177 178 177 177 176 172 172 175 176 177 178 182 179 176 174 182 187 183 188 197 208 206 184 176 184 180 171 152 146 187 165 176
167 176 162 138 170 173 279 289 313 28 136 156 158 162 173 176 176 178 179 179 178 176 177 177 177 177 181 183 178 176 177 172 172 177 175 182 196 200 192 178 173 175 168 168 156 157 218 190 200
156 152 96 114 151 219 282 258 233 218 189 168 167 169 172 172 172 175 177 177 176 176 175 173 176 181 181 179 181 180 179 176 171 163 171 183 195 191 167 166 172 174 175 167 155 172 201 173 227
125 104 110 124 152 154 218 262 222 196 188 179 184 176 171 170 170 171 174 175 170 167 168 171 178 177 178 179 179 177 177 175 169 173 184 185 183 181 175 176 174 175 185 184 168 195 195 191 245
165 167 144 148 216 168 175 260 255 184 181 171 175 173 171 170 171 171 169 163 166 168 169 174 178 180 183 181 177 179 173 171 175 186 193 182 181 180 178 175 174 186 194 193 192 213 212 206 229